Wind_Speed
24 23 24 25 25 23 22 23 23 21 19 18 17 17 16 14 15 15 15 14 15 15 15 14 12 10 11 12 14 16 16 15 15 16 17 17 17 17 16 16 16 16 16 16 16 16 16 16 15 15 15 14 14 13 13 13 13 14 14 15 15 15 16 16 16 15 15 15 15 15 15 15 14 14 14 14 14 15 16 16 17 17 18 18 19
27 24 23 23 24 24 24 25 24 22 20 19 18 18 16 15 15 15 14 14 14 13 13 13 12 10 10 11 12 14 14 14 15 16 17 18 18 18 18 18 18 18 17 17 17 16 16 16 16 16 15 15 14 14 14 13 13 14 14 14 15 15 15 15 15 14 14 14 14 15 15 15 15 14 15 15 15 15 16 17 17 18 19 19 20
28 26 25 25 26 25 25 24 23 21 20 19 18 17 17 16 16 15 14 14 13 13 12 12 11 11 10 11 12 13 14 14 15 16 18 19 20 21 21 20 20 20 19 18 18 17 17 16 16 16 16 16 15 15 15 15 15 15 14 14 15 16 16 16 15 14 14 14 14 14 14 14 14 14 14 15 15 16 16 17 18 19 20 21 21
28 29 27 26 25 23 22 21 20 20 19 19 18 18 18 17 16 16 16 15 13 12 12 12 12 12 12 12 13 14 14 15 16 17 18 19 20 21 22 22 21 21 20 20 19 19 19 18 17 17 17 17 17 17 17 17 17 17 16 16 16 16 16 17 17 17 17 17 16 16 16 15 15 16 16 17 18 18 19 19 20 20 21 23 24
28 27 25 23 21 20 19 18 19 18 18 18 18 18 18 17 17 17 17 16 14 13 12 12 13 13 13 13 14 15 16 17 17 18 19 19 20 21 22 23 23 22 21 21 21 21 21 20 19 19 19 20 20 20 20 20 20 20 20 20 19 18 18 18 18 19 20 20 19 19 19 18 19 20 21 22 23 23 22 23 24 24 24 25 27
24 21 19 18 18 17 17 18 18 18 17 17 17 17 17 18 18 18 17 16 14 13 13 13 14 15 15 15 16 17 17 18 19 19 20 21 21 22 23 24 24 23 23 23 23 23 23 22 22 22 23 23 23 23 23 23 24 24 24 24 24 23 22 22 21 22 23 23 23 23 22 23 24 25 25 26 27 28 27 28 30 31 30 30 31
20 19 19 18 19 19 20 20 20 20 19 18 17 17 18 19 19 19 17 16 14 13 13 14 15 16 17 17 18 18 19 20 21 21 21 23 24 24 25 27 26 25 24 24 25 25 26 26 25 25 26 26 26 27 27 26 27 27 27 28 28 27 26 26 26 26 26 27 29 29 28 27 28 30 30 30 31 33 34 34 36 38 38 37 37
19 19 19 20 21 22 22 23 22 22 21 20 19 19 19 20 21 20 19 18 17 17 16 16 17 18 19 19 20 20 20 21 21 21 22 23 25 26 28 29 28 27 25 25 25 26 28 29 30 30 29 29 29 29 29 29 29 29 29 30 30 30 30 30 30 30 30 31 33 34 34 33 32 33 34 35 36 37 39 40 41 42 43 43 43
20 20 20 21 21 22 23 24 23 23 23 23 23 22 22 22 23 22 22 22 21 21 21 21 21 22 22 22 22 22 22 22 21 21 22 23 24 26 28 30 31 30 28 27 27 27 28 31 32 33 32 31 31 31 31 31 32 32 33 32 32 32 33 32 32 33 33 34 35 37 37 37 37 37 38 38 39 40 42 44 44 45 46 46 45
24 24 24 24 24 25 26 27 26 26 26 26 26 26 26 26 26 26 26 26 26 26 26 25 25 25 25 25 25 25 26 26 26 26 27 27 26 27 28 31 33 32 31 31 30 29 30 30 31 32 33 33 33 33 33 32 33 33 34 33 33 32 33 33 33 34 35 36 38 39 40 41 40 40 42 42 42 42 43 45 45 46 47 47 45
27 27 27 28 28 29 29 29 29 29 29 29 29 29 29 30 30 30 30 30 30 30 30 29 28 28 28 28 29 29 29 30 30 31 32 32 32 32 31 31 34 35 33 33 33 32 30 30 30 31 32 32 32 31 31 32 33 33 34 33 33 33 34 35 35 37 37 38 39 41 42 43 43 43 44 44 44 44 44 44 45 46 47 47 46
30 30 30 30 31 31 31 31 31 31 31 31 31 32 32 33 34 34 34 34 34 34 33 32 32 32 32 32 32 32 32 33 33 33 33 34 35 36 35 34 36 36 36 35 36 34 31 31 31 31 31 31 31 30 31 32 32 32 33 34 35 36 37 39 40 41 41 42 42 43 44 44 45 45 44 44 44 45 44 44 45 46 46 47 47
34 33 33 33 34 34 33 33 34 34 34 34 35 36 36 36 37 37 38 38 37 36 36 36 36 36 35 36 36 35 35 36 36 35 35 36 37 38 39 39 38 36 36 37 38 36 34 33 33 33 34 34 35 35 35 35 35 35 36 37 38 40 41 42 43 44 44 43 43 43 43 43 44 45 44 43 44 45 45 46 46 47 48 48 49
38 37 37 38 38 38 38 38 38 38 38 38 39 39 39 39 39 40 40 40 40 39 39 39 39 37 36 35 36 37 38 37 37 37 37 38 39 40 42 43 41 38 37 38 39 39 38 37 36 36 37 38 38 37 37 37 38 38 38 38 39 39 40 41 41 41 41 41 41 42 42 43 44 45 45 45 46 46 47 48 48 49 50 51 51
41 41 41 41 42 43 43 44 43 43 43 43 43 43 43 42 40 39 38 38 39 40 40 39 37 35 34 34 36 38 37 36 36 38 38 40 42 43 43 45 44 43 41 40 40 40 40 41 40 39 39 39 38 37 37 38 38 38 38 38 38 38 39 39 40 40 40 41 42 42 43 44 45 46 47 47 48 48 49 49 50 51 52 52 53
42 42 43 44 46 47 48 48 48 47 47 46 45 43 41 39 37 35 35 36 37 38 38 37 36 35 36 37 38 39 39 38 38 38 39 41 44 45 45 45 45 46 46 43 43 44 44 44 43 42 41 40 39 38 38 38 38 38 38 38 38 39 40 40 41 42 42 42 43 44 45 46 47 48 49 50 51 51 52 52 52 53 54 54 54
44 45 46 48 50 50 50 49 48 47 45 43 41 38 37 36 36 36 36 36 36 36 36 36 38 40 41 42 42 42 41 41 40 40 41 42 44 46 47 47 47 48 48 47 47 47 46 45 45 43 41 39 38 38 39 38 38 38 37 38 39 40 41 43 43 44 44 44 45 46 47 47 48 49 50 51 52 52 53 53 54 54 54 55 55
45 46 48 49 49 49 49 48 46 45 45 44 43 42 42 42 42 43 43 43 43 43 43 43 45 47 48 49 50 49 48 46 45 45 44 44 45 47 49 50 50 49 49 49 49 47 46 45 45 43 41 39 38 38 39 39 38 38 39 40 41 41 42 44 44 44 44 44 45 46 47 48 49 50 51 51 52 52 52 53 54 54 55 55 55
45 46 47 48 49 49 49 49 49 49 51 51 51 52 52 52 51 51 51 51 51 51 52 52 53 54 54 55 55 54 54 53 51 50 49 47 48 49 50 51 50 48 48 50 50 49 48 47 45 44 42 40 39 39 41 41 40 40 41 41 41 41 41 42 43 43 44 44 45 46 48 50 51 52 53 53 53 53 53 54 55 55 55 56 56
49 50 51 53 53 54 55 55 56 58 58 59 59 59 59 59 58 58 57 57 56 57 57 57 58 58 58 58 57 57 57 56 55 54 53 51 49 50 51 52 51 49 48 47 45 44 46 47 45 42 40 38 39 42 43 43 43 42 42 42 42 42 41 42 43 45 45 46 47 49 51 52 53 53 54 53 53 52 52 53 54 56 56 57 57
56 57 58 59 60 60 61 62 63 64 64 64 64 64 64 64 63 62 62 61 61 61 61 61 61 61 61 61 61 60 60 59 57 55 54 52 50 50 51 51 50 50 47 43 42 43 45 44 41 39 38 41 43 45 45 44 43 42 42 41 42 42 43 44 45 47 49 50 51 52 53 53 53 53 53 53 53 53 53 53 54 55 56 57 57
62 62 62 63 63 64 66 66 67 67 67 67 67 67 66 66 66 66 66 65 64 64 64 64 64 63 63 63 62 61 60 59 57 55 53 52 50 49 48 49 50 50 45 43 47 49 47 44 41 41 44 46 47 46 44 43 42 41 41 41 42 44 46 47 48 49 50 51 51 52 52 52 52 53 53 53 53 54 54 54 55 55 56 57 57
65 65 65 66 67 67 68 69 69 70 69 69 69 69 69 69 68 68 68 68 68 67 66 65 64 63 63 62 61 60 59 56 54 53 51 50 48 45 45 47 47 46 43 43 46 48 47 46 46 48 50 49 48 46 44 42 42 42 42 43 45 46 48 49 49 49 49 49 50 50 50 51 52 53 53 53 54 55 55 56 56 56 57 58 58
66 67 67 68 68 68 69 70 70 71 71 71 71 71 71 71 70 70 70 70 69 67 65 65 64 62 61 60 59 58 57 54 53 51 49 48 46 44 45 48 47 45 45 47 47 48 49 51 51 52 51 50 49 47 45 44 44 45 45 46 47 48 49 48 48 47 47 48 49 50 52 53 54 54 55 55 56 56 57 57 57 57 57 57 57
66 67 67 68 68 69 70 70 71 72 72 73 73 73 72 72 71 71 71 71 70 68 66 66 64 61 60 61 59 57 56 53 51 50 49 47 46 46 49 53 53 52 52 52 53 54 55 55 53 52 51 50 49 48 47 47 47 47 47 48 49 48 48 47 47 47 48 49 50 52 55 56 56 56 56 56 57 58 58 58 57 56 56 55 54
67 68 68 69 70 70 71 71 72 72 73 73 73 73 73 73 72 72 71 70 70 68 67 66 64 60 60 60 58 56 56 54 50 48 48 48 48 49 53 57 58 59 59 59 60 60 59 56 53 52 50 49 49 49 48 48 48 48 49 49 49 47 45 46 47 47 48 50 53 56 57 57 57 57 57 57 57 57 57 56 54 53 51 51 50
67 68 68 69 69 69 69 69 69 69 69 69 69 70 70 71 70 70 70 69 67 66 65 65 63 61 60 58 54 52 53 52 50 50 51 51 51 51 54 58 60 59 58 58 58 58 56 54 53 51 49 48 48 48 48 47 48 49 50 49 47 45 44 46 47 47 50 54 57 57 57 58 58 58 57 56 55 54 53 51 49 48 47 46 46
65 66 66 66 66 66 66 67 67 67 67 68 69 69 70 71 70 70 71 70 68 66 66 65 65 64 61 56 52 50 49 49 50 52 51 50 50 50 52 56 60 60 57 54 51 50 49 48 47 46 45 44 45 47 48 48 49 49 48 45 44 43 45 46 47 49 53 57 58 58 58 58 57 55 53 51 50 49 47 46 45 44 44 44 45
64 64 64 64 65 65 66 66 67 67 67 67 68 68 69 69 69 69 70 71 69 67 66 66 65 64 61 57 53 52 51 49 48 48 49 49 49 49 51 54 58 61 61 58 55 52 50 49 47 47 46 47 48 49 48 48 47 46 44 43 42 43 45 46 48 52 57 58 58 57 56 54 52 49 47 45 44 43 43 43 42 42 42 43 44
60 60 60 60 60 60 60 61 61 62 61 61 62 63 63 63 64 65 66 68 67 65 64 63 60 59 59 58 55 53 52 50 48 48 50 50 49 49 50 52 54 57 59 59 57 55 53 51 50 48 48 48 48 47 45 45 44 43 42 42 42 43 45 46 50 55 58 58 56 53 50 47 44 42 41 40 40 40 41 41 41 41 41 41 42
54 53 54 54 54 55 56 56 57 58 58 58 58 59 59 59 60 62 63 64 65 64 63 61 59 56 54 55 56 55 54 55 55 54 54 54 54 53 50 48 48 50 52 53 53 52 50 48 45 44 44 45 44 43 43 43 43 43 42 41 42 44 46 49 54 57 56 53 50 47 44 40 38 38 38 38 37 38 38 38 39 40 40 41 43
51 51 52 52 52 53 53 52 53 53 53 53 53 52 52 52 53 55 57 59 61 63 63 62 62 60 57 55 54 52 50 52 54 55 56 57 57 54 49 46 45 45 46 46 47 47 44 42 40 40 41 42 42 42 42 42 42 42 42 42 43 45 48 52 54 53 50 47 44 41 37 36 35 35 35 34 34 35 37 38 39 40 41 43 44
49 48 48 47 46 46 45 45 45 46 46 46 45 44 44 44 45 47 49 50 53 57 59 61 62 61 60 59 57 53 51 51 52 52 53 53 50 48 47 46 43 41 40 41 41 40 39 38 39 40 40 40 41 41 41 41 41 41 42 43 44 47 50 52 50 46 44 41 38 35 34 33 33 32 31 31 33 35 37 38 39 41 43 42 38
41 40 39 39 38 38 38 38 39 39 39 39 39 39 39 39 40 42 43 45 46 48 51 55 57 58 58 59 59 58 57 55 54 53 52 50 48 48 49 48 44 41 41 41 40 39 39 40 41 42 41 40 41 41 41 41 41 41 42 43 46 49 50 47 44 41 39 36 33 32 32 30 28 27 28 31 34 36 38 40 42 42 39 33 28
33 32 32 31 32 32 33 34 35 36 37 38 38 39 39 39 40 40 41 42 42 41 43 45 48 50 52 55 57 58 56 53 51 52 51 49 49 50 51 49 46 45 45 44 42 41 41 42 42 42 41 41 41 41 41 41 41 41 42 45 47 47 45 42 40 38 34 31 30 30 28 25 24 25 28 32 35 37 40 42 41 36 29 23 21
27 27 27 28 29 31 32 33 34 35 37 39 41 42 42 42 42 41 41 41 39 36 36 37 39 41 45 49 53 56 55 49 44 43 45 45 46 47 48 47 45 44 43 42 39 39 39 40 41 40 41 41 40 40 40 41 41 41 43 45 45 43 41 39 37 33 31 30 28 26 23 21 22 25 28 32 36 39 41 41 35 26 20 18 19
24 25 26 27 29 29 30 31 33 36 38 40 42 44 45 45 45 44 42 41 38 34 33 33 35 38 41 45 50 55 58 55 46 39 38 40 41 41 42 41 41 41 40 38 36 36 37 38 39 39 40 41 40 40 41 41 41 42 43 43 41 39 38 36 33 31 29 28 24 21 20 19 22 24 27 31 35 39 40 34 26 20 18 18 18
23 24 25 25 26 26 27 29 33 36 38 39 40 41 42 43 43 42 41 39 36 32 29 30 34 36 38 42 47 53 59 62 57 48 43 41 40 39 39 39 40 40 39 38 37 37 37 38 39 38 38 39 40 41 41 41 42 42 41 39 38 37 35 32 30 29 27 23 20 19 18 18 21 23 25 28 33 37 35 27 20 18 18 17 17
20 21 22 22 23 23 26 30 33 35 36 36 35 34 34 34 35 35 35 33 30 27 26 29 33 35 36 38 43 48 56 62 64 59 53 49 45 42 38 37 38 39 40 40 40 39 39 39 39 39 39 39 40 41 41 41 41 39 37 36 36 34 32 30 29 27 23 20 18 17 16 18 20 21 23 26 29 31 29 22 17 16 16 16 15
18 19 20 21 21 23 26 30 33 35 37 36 32 28 26 25 25 26 27 27 25 25 26 29 32 34 35 36 38 43 50 58 64 65 62 58 54 48 43 41 40 39 39 40 40 39 38 39 39 41 41 41 41 40 40 40 38 35 34 35 34 31 29 29 27 24 20 18 17 16 16 17 19 20 21 23 25 25 24 19 15 14 14 13 13
17 18 19 20 21 23 26 30 33 36 38 36 28 22 20 19 19 22 25 26 25 26 28 28 29 31 33 33 35 38 43 51 58 62 63 63 59 51 45 44 42 40 40 41 41 40 40 42 44 45 46 45 43 40 38 37 36 34 34 35 32 29 28 28 24 21 19 18 17 15 16 17 18 18 19 21 22 22 22 19 14 12 13 12 12
17 17 18 19 21 23 27 30 33 37 38 32 22 17 17 17 18 21 23 23 23 25 26 25 26 28 29 29 30 32 35 42 50 55 60 62 58 47 39 38 38 37 38 41 42 43 44 45 47 48 48 47 45 42 38 36 36 35 35 34 31 28 27 25 22 20 20 19 17 15 16 17 17 17 18 19 20 20 20 19 17 13 12 12 13
16 17 18 19 20 23 27 30 33 37 35 24 15 13 14 14 14 15 16 18 21 23 23 22 24 27 26 25 25 26 26 30 38 45 51 55 54 44 35 34 35 35 36 38 40 41 42 42 43 44 44 45 44 42 39 37 37 38 38 34 30 28 26 23 21 21 21 19 17 16 16 17 17 16 17 17 18 18 19 19 18 17 15 13 13
16 17 18 19 20 23 25 28 33 35 28 16 10 10 11 10 10 10 12 14 16 19 20 22 25 25 24 22 22 21 18 19 25 33 38 42 46 45 41 39 38 39 39 40 40 40 40 39 39 39 40 42 42 41 41 41 42 42 39 34 30 26 24 22 22 22 21 20 18 16 16 17 16 15 16 16 17 17 18 18 17 17 18 17 15
15 17 18 18 20 22 23 25 30 31 22 12 8 7 7 8 8 9 11 13 14 17 19 22 24 23 21 20 20 21 19 17 20 26 29 31 36 40 40 40 40 41 42 42 42 40 39 38 37 37 38 40 40 41 42 44 43 40 36 32 28 24 23 23 23 23 22 20 18 18 17 17 16 14 15 16 16 17 17 18 18 17 17 18 18
14 15 16 17 18 19 20 22 26 27 21 12 8 7 5 5 6 7 9 11 13 15 18 19 20 21 19 17 17 20 22 21 22 25 26 28 30 32 35 37 38 39 40 40 39 38 38 37 37 38 38 39 40 42 43 42 38 34 31 29 25 23 23 23 23 23 22 21 19 19 18 17 15 13 14 15 16 16 16 17 18 18 18 18 18
14 15 15 15 15 17 17 19 22 24 21 16 12 10 8 7 6 7 8 9 10 12 14 16 17 18 18 16 15 18 22 25 25 24 24 24 26 28 30 32 33 33 33 33 33 34 35 35 36 37 39 40 40 40 38 34 30 28 27 25 23 23 24 24 24 24 23 22 20 20 19 18 15 13 13 14 15 16 16 17 18 18 18 18 18
15 16 17 16 15 15 15 16 18 20 19 18 15 13 12 11 9 6 5 7 9 10 11 13 15 18 21 19 17 18 22 25 26 26 24 21 21 23 24 24 25 25 26 27 28 29 30 32 34 36 37 38 37 35 30 26 25 24 24 23 23 23 24 24 24 24 23 22 21 21 20 18 16 14 14 15 15 16 16 17 17 18 18 18 18
15 16 17 18 17 15 14 13 14 15 15 14 13 13 13 14 14 12 8 3 5 8 10 11 13 18 22 21 20 22 24 23 22 22 22 20 20 20 20 20 20 21 22 23 24 26 27 30 32 34 36 36 35 32 27 24 23 23 23 23 24 24 24 24 24 24 24 23 22 21 20 19 17 16 16 16 17 17 17 17 17 17 17 18 18
13 14 16 17 18 17 14 12 11 11 12 11 10 10 10 11 12 13 13 10 5 2 8 11 12 15 19 20 21 25 25 21 17 17 17 16 16 16 16 17 19 21 23 25 27 28 30 32 34 35 35 35 32 28 25 23 23 23 23 23 24 24 24 24 24 24 24 23 22 21 20 19 18 17 17 17 18 18 18 18 18 17 17 17 17
12 13 13 14 16 17 16 14 11 9 9 9 9 9 8 9 9 10 12 12 11 8 5 8 10 12 14 17 22 25 22 16 13 13 13 11 10 10 12 14 17 21 24 27 30 33 34 35 35 33 30 28 26 25 24 23 23 23 23 23 23 23 23 23 23 24 24 23 22 20 20 19 19 19 19 18 18 19 19 19 18 18 17 17 17
Wind_Direction
278 288 285 260 243 245 251 252 253 254 257 262 268 271 272 272 274 279 285 292 297 299 298 297 294 288 280 274 267 263 261 263 264 265 264 262 262 262 262 263 265 266 268 269 270 271 272 273 275 277 278 279 280 279 279 279 276 275 274 273 274 273 272 272 272 272 271 271 272 275 276 278 279 281 283 286 288 291 293 294 295 296 297 298 298
275 280 281 269 262 263 260 256 255 258 261 265 268 270 269 266 267 272 280 286 290 292 291 290 290 288 281 271 263 257 256 258 261 264 267 267 265 263 261 261 262 263 264 265 265 266 268 269 270 272 273 274 274 274 273 272 269 269 271 271 273 275 276 277 278 278 277 275 274 274 275 276 277 279 282 284 286 287 289 291 292 293 294 295 295
272 275 276 273 272 269 262 256 257 261 264 265 266 266 265 265 267 272 278 281 283 284 286 288 289 287 282 272 262 254 252 255 259 264 267 267 266 264 262 262 262 262 262 262 262 263 264 266 268 270 270 270 269 268 267 264 262 264 268 269 271 274 274 273 273 272 271 269 268 269 270 272 274 276 278 281 282 283 284 286 288 292 294 294 294
270 271 270 269 267 262 256 255 258 261 262 262 262 261 261 264 266 269 272 274 274 275 280 286 287 284 279 275 268 260 255 255 259 263 266 266 266 264 263 263 262 262 263 263 264 264 264 263 263 265 266 267 268 267 265 264 261 261 262 264 266 269 269 268 267 266 263 261 261 263 266 268 272 275 277 278 279 280 282 282 284 287 290 291 292
267 263 261 260 257 253 251 253 256 258 258 257 256 257 258 261 262 264 267 269 269 271 275 280 281 281 279 278 275 269 264 261 262 263 264 264 264 264 264 263 262 262 263 264 265 265 265 265 264 265 265 266 267 268 268 268 267 266 266 266 266 267 268 268 268 267 267 265 265 266 268 270 273 277 280 282 282 281 281 282 283 286 288 289 290
259 253 250 248 247 247 248 250 253 255 256 256 256 255 254 256 258 261 264 267 270 273 273 274 275 278 281 284 283 278 271 265 263 262 260 260 260 262 263 263 262 262 262 263 263 263 263 264 266 266 266 267 268 269 270 271 271 271 271 270 270 270 270 270 270 270 271 273 273 272 272 275 277 278 279 281 283 284 283 283 284 285 288 288 289
253 249 246 244 244 246 249 253 257 257 257 258 257 255 253 254 257 260 263 266 269 270 269 269 270 273 280 285 287 284 278 271 266 263 262 260 258 258 260 261 261 260 262 264 264 263 263 264 264 264 265 266 267 268 268 269 270 271 271 272 273 273 273 273 273 273 274 276 277 277 276 276 278 279 281 282 283 284 285 285 286 287 288 289 289
256 253 251 249 249 251 254 257 259 259 260 260 258 257 257 257 260 263 264 265 266 266 265 264 264 268 274 280 284 285 283 278 273 270 267 265 261 257 257 258 259 260 262 264 265 265 265 264 263 263 264 265 266 267 268 268 269 270 271 272 274 275 275 276 276 277 278 279 280 281 281 281 281 281 283 284 284 285 286 286 286 287 288 289 289
256 255 255 254 253 255 257 258 259 262 264 265 264 264 263 263 264 265 265 266 266 265 264 263 264 265 268 272 277 280 281 281 279 274 271 270 269 263 257 256 258 260 262 263 263 264 265 265 263 262 263 264 264 265 267 268 269 270 271 273 275 276 276 276 278 279 280 281 281 282 283 283 284 284 284 284 284 285 285 286 286 287 287 287 288
256 256 257 257 257 257 259 260 262 265 267 267 268 269 269 269 269 269 268 268 266 266 266 265 266 266 267 269 271 273 276 278 278 277 276 276 276 273 264 256 255 257 259 260 260 262 264 265 264 263 263 264 263 264 265 268 269 270 271 273 275 277 277 278 279 280 281 281 281 282 282 282 283 283 283 283 283 283 283 283 284 285 286 286 287
256 257 258 259 260 261 263 264 266 267 267 268 268 268 268 269 270 271 271 270 270 269 268 268 268 269 269 270 270 272 273 275 276 278 279 279 279 279 275 264 255 252 254 256 258 261 263 266 266 265 265 266 264 263 265 268 270 271 271 272 273 275 277 278 279 280 280 281 281 282 283 283 283 283 283 283 283 282 281 281 281 282 283 284 284
259 260 261 261 263 264 265 266 267 268 268 269 269 268 268 268 268 269 270 270 271 271 271 271 272 271 270 270 270 271 272 272 274 276 277 278 278 279 279 274 264 255 252 254 257 258 261 263 265 265 265 264 262 264 267 270 271 272 271 271 271 272 274 275 277 278 278 279 280 280 281 282 282 281 282 282 282 282 282 282 282 282 282 282 283
261 262 263 264 265 266 267 268 269 269 270 270 270 270 270 269 270 271 271 270 270 270 271 273 272 272 272 272 272 272 271 272 273 274 274 274 275 276 277 276 272 264 259 258 256 253 254 258 260 261 263 265 266 268 271 271 271 271 271 272 272 272 274 275 276 277 278 278 278 279 279 280 280 280 281 282 283 283 284 284 284 284 284 283 283
262 263 265 266 267 268 270 271 271 272 272 272 272 273 274 274 274 275 275 273 272 271 272 273 273 272 271 272 273 273 272 272 272 272 273 273 273 273 273 274 274 272 269 265 257 250 252 259 263 264 264 266 269 271 272 272 273 273 274 274 274 275 276 277 278 279 280 280 280 280 280 280 281 282 283 284 284 285 286 286 286 286 285 285 285
264 266 267 269 270 272 273 273 274 274 275 275 276 277 278 279 279 280 279 277 276 274 272 272 273 271 269 269 271 272 273 273 272 272 274 274 272 271 271 272 274 273 272 269 263 258 260 265 269 269 268 268 269 270 271 271 272 273 273 274 275 276 276 277 278 279 280 281 282 282 282 283 284 285 286 286 287 288 288 288 288 287 287 286 286
264 266 270 272 274 274 275 275 275 276 276 277 277 277 277 277 277 279 280 279 277 274 271 269 270 271 272 272 272 272 273 273 274 275 276 275 274 273 273 272 271 270 270 269 267 266 266 267 270 271 269 267 268 269 269 269 270 271 272 273 274 275 276 277 277 278 279 281 282 283 284 284 286 287 287 288 289 289 288 288 288 287 286 286 286
264 267 270 272 272 272 273 274 275 275 276 276 276 275 275 275 275 276 277 276 274 271 267 264 265 268 271 274 276 275 273 273 275 277 278 277 277 275 274 272 270 269 269 269 269 267 265 266 268 267 264 263 264 266 268 269 269 271 273 275 277 278 278 278 278 279 280 281 282 283 284 284 285 286 287 288 288 288 289 288 288 287 287 287 286
263 266 268 269 269 270 271 272 273 274 275 276 275 275 275 275 275 275 275 274 273 270 268 266 266 268 270 273 275 275 274 275 277 277 277 279 278 275 273 271 270 269 270 269 268 266 264 264 264 261 260 261 262 264 266 268 269 272 275 278 280 280 279 279 279 280 280 281 282 282 284 285 286 286 287 288 288 289 289 288 288 288 288 288 287
260 263 265 267 268 269 269 270 270 271 273 274 274 274 274 274 273 273 273 273 273 272 271 270 270 271 272 273 274 274 274 275 276 277 276 277 277 275 272 270 268 269 271 271 268 266 262 260 258 257 257 259 262 265 267 269 272 276 279 281 282 282 281 280 280 281 281 282 283 284 286 287 288 288 288 289 289 290 290 290 290 289 289 289 289
260 262 264 266 267 268 268 269 270 271 272 273 273 273 274 273 273 272 272 272 272 272 272 271 272 272 272 273 273 274 274 274 275 275 276 276 276 273 270 269 267 268 271 270 265 261 257 254 252 252 254 259 266 268 269 270 273 276 279 281 283 283 283 282 282 283 283 283 284 286 287 288 287 286 287 287 287 288 289 289 289 289 289 289 289
262 263 265 266 267 267 268 269 270 271 271 272 273 273 273 273 273 273 273 272 272 272 272 272 272 273 273 273 273 274 274 274 275 274 274 274 273 269 268 268 267 267 265 259 252 249 250 249 249 251 259 267 270 270 269 270 273 275 277 279 281 282 282 282 282 283 284 284 285 286 287 286 286 286 286 286 287 287 287 287 287 287 287 287 286
265 266 266 267 267 267 268 269 270 271 271 272 273 273 273 274 274 274 274 274 274 274 274 274 274 274 274 273 273 274 274 274 274 273 272 271 270 268 269 268 265 263 259 250 245 246 247 248 253 261 269 272 271 269 269 270 272 273 275 277 280 282 283 283 283 284 285 285 286 285 285 286 287 288 288 289 289 290 289 289 288 287 286 285 285
268 268 268 268 269 269 270 270 271 271 272 272 272 273 273 273 274 274 274 274 274 274 273 273 273 274 274 274 273 273 273 273 272 271 269 267 265 264 265 263 259 256 251 244 242 244 247 253 262 269 271 270 268 268 269 269 270 272 274 278 281 284 285 286 286 286 286 286 286 286 287 289 290 291 291 291 291 291 290 289 289 288 286 285 285
268 268 269 269 269 270 270 271 271 271 271 271 271 272 272 272 273 273 273 273 273 273 272 272 271 272 273 273 273 273 272 271 270 268 266 264 259 255 254 254 251 247 244 243 244 248 254 262 268 269 268 266 266 267 268 269 270 272 276 280 283 285 287 287 286 285 286 287 288 289 291 293 293 293 292 292 291 290 289 289 288 287 287 286 286
267 268 268 268 268 268 268 269 269 269 270 270 270 270 270 270 271 271 271 271 271 271 271 271 271 270 269 270 271 271 270 269 267 265 263 261 257 250 247 249 250 250 249 250 253 256 261 266 267 265 264 264 265 266 266 267 270 273 278 281 284 285 285 284 284 285 287 289 292 293 294 294 293 292 291 290 289 289 289 288 288 288 287 287 287
266 266 266 267 267 267 267 267 267 268 268 268 269 269 269 269 269 269 269 269 269 270 270 270 270 269 268 269 269 268 268 267 263 261 260 259 256 250 246 247 250 253 256 257 258 260 263 264 263 262 263 264 264 264 265 267 271 275 279 282 284 283 282 282 284 286 290 293 295 295 294 293 292 291 290 289 289 288 288 288 289 289 289 289 288
267 267 267 267 267 267 267 267 267 267 268 268 268 269 269 269 269 269 268 268 268 268 268 268 268 267 268 269 270 268 266 264 260 258 258 256 253 251 248 247 248 251 254 256 257 258 260 260 259 260 262 262 262 264 267 271 275 278 280 281 280 279 280 282 285 288 293 296 296 295 293 291 290 290 290 290 290 289 289 289 289 289 289 289 289
268 268 268 268 268 268 268 268 268 268 268 268 268 268 268 269 268 268 268 267 266 265 265 265 265 265 266 266 265 263 263 262 260 258 256 253 251 250 249 248 248 249 250 251 252 254 255 256 257 258 259 261 265 268 271 275 277 277 277 276 277 279 282 283 285 290 296 298 297 295 293 292 292 293 293 292 291 290 289 289 289 289 289 289 290
269 269 269 269 269 269 269 269 269 268 268 267 267 266 266 266 266 265 265 265 264 263 261 261 262 262 263 261 257 255 256 259 259 257 255 255 255 254 252 250 248 248 249 251 254 256 256 257 259 260 262 265 268 270 272 273 273 273 274 276 278 281 282 283 287 294 298 298 296 295 295 295 295 295 293 292 290 289 289 289 289 290 291 292 294
271 272 272 271 271 271 270 270 270 269 268 267 267 266 266 265 265 264 263 262 262 260 259 258 258 258 258 256 253 250 249 251 252 253 255 257 257 254 253 252 251 250 251 253 256 258 260 261 262 262 263 265 266 267 268 268 269 271 275 278 280 281 282 285 292 297 298 296 295 296 296 296 294 292 291 291 290 290 291 291 291 293 295 296 297
275 275 275 275 275 275 275 274 274 273 272 271 270 270 269 268 267 266 265 263 261 259 257 255 253 251 251 252 251 249 249 250 250 251 253 253 252 253 255 257 256 255 255 256 257 259 260 261 261 260 260 261 263 265 266 267 269 273 275 277 279 281 285 290 295 297 296 295 296 296 295 294 292 291 292 292 291 292 292 293 295 297 298 299 299
278 278 278 278 278 278 278 277 276 276 275 274 273 272 272 271 270 269 267 266 263 260 258 255 251 247 245 245 247 247 249 251 251 249 248 248 250 254 258 259 258 257 256 256 256 256 256 256 257 259 261 262 263 265 266 268 270 272 274 276 279 283 289 294 296 295 294 295 295 294 292 292 292 293 293 292 292 293 295 297 298 299 300 301 301
279 279 278 278 278 278 278 277 277 277 276 276 274 273 271 270 269 269 269 268 266 263 259 255 252 248 244 241 239 238 238 241 245 246 246 246 249 253 255 255 253 253 253 251 250 251 253 255 258 261 263 263 263 264 265 267 268 271 274 277 282 289 294 296 295 294 295 294 293 291 291 293 293 292 292 293 295 296 298 299 301 302 302 302 299
278 278 278 279 279 279 280 280 279 278 277 276 274 272 270 269 270 270 271 271 270 268 262 256 251 247 244 240 237 235 233 235 239 243 245 246 246 247 250 252 251 250 251 250 250 253 257 258 259 262 263 262 261 262 264 265 267 270 275 281 288 294 295 293 293 294 294 292 290 291 292 292 290 291 294 297 299 300 301 303 304 304 302 299 295
279 280 280 281 282 283 283 283 282 280 278 277 275 273 271 270 270 272 273 273 273 272 267 259 251 247 243 238 234 232 231 233 237 241 242 243 242 243 246 249 251 252 252 251 251 253 256 257 259 261 262 260 258 258 261 264 266 270 278 286 292 293 291 290 293 294 291 289 290 291 290 288 289 294 299 302 303 304 304 306 306 304 299 294 293
280 281 282 283 285 285 285 285 284 283 281 279 277 274 272 270 269 269 271 271 269 268 266 261 255 249 244 238 232 227 224 226 233 239 241 241 242 242 245 247 250 251 251 250 250 253 255 257 258 259 258 256 254 255 259 262 266 274 284 290 290 288 288 290 292 290 287 288 289 287 283 285 293 300 305 307 307 307 308 309 306 299 293 294 296
282 282 283 285 286 287 287 288 290 290 289 285 281 277 273 270 268 266 266 266 262 258 257 257 255 252 246 239 231 224 219 217 220 226 232 236 238 239 239 240 241 242 243 244 246 248 250 251 251 251 251 252 253 256 260 264 271 280 286 287 285 284 287 290 289 286 286 286 283 278 279 289 299 305 308 310 311 311 311 309 301 291 292 298 299
282 283 284 286 287 289 293 298 301 301 299 295 288 281 275 270 266 263 261 259 256 252 250 251 252 251 248 241 233 225 220 217 216 215 219 225 229 231 233 234 236 237 240 241 243 244 245 245 246 247 250 252 256 260 265 271 278 283 283 281 281 284 287 287 284 283 283 279 272 271 280 293 301 306 310 313 316 316 315 309 296 289 294 298 299
283 285 287 289 291 295 301 305 307 309 310 307 298 287 277 271 266 260 255 252 248 244 244 246 248 250 249 245 238 230 223 220 218 217 218 220 221 222 229 238 241 242 243 245 245 246 247 247 248 251 255 258 262 267 273 278 280 278 277 279 282 284 284 282 280 279 275 267 262 269 283 294 300 306 310 315 320 323 320 309 294 290 294 297 298
290 290 292 294 298 302 305 307 310 315 318 315 304 289 277 272 266 255 247 242 237 233 235 242 247 249 249 247 243 235 228 224 221 220 221 223 224 225 233 244 247 245 245 246 246 246 247 249 252 256 260 265 268 272 275 276 273 270 274 281 283 281 279 278 276 272 262 255 257 269 283 291 298 305 310 314 322 331 333 321 300 289 293 299 303
296 296 298 303 306 307 309 311 314 319 321 317 304 285 275 271 260 246 237 233 230 230 234 240 246 249 248 247 244 240 233 228 225 222 222 225 227 230 237 244 246 244 244 245 248 251 254 257 260 262 265 268 270 271 270 267 263 264 275 283 282 277 276 275 270 260 250 248 255 268 279 287 295 303 309 313 321 335 346 343 324 299 292 299 308
301 303 307 310 311 313 316 319 321 323 324 318 301 279 274 271 257 242 235 230 229 232 237 240 243 246 246 246 245 243 238 233 229 226 224 225 226 228 236 243 246 247 248 250 254 257 258 259 260 261 263 265 266 264 263 260 259 265 276 282 279 273 272 269 260 249 244 246 253 265 275 283 292 301 308 314 320 329 342 353 354 340 318 305 305
308 310 313 313 314 318 323 325 327 329 328 320 296 276 277 270 251 236 231 231 234 238 240 239 239 241 243 244 243 240 238 237 233 229 227 225 224 224 231 240 245 248 250 251 252 253 253 254 256 257 258 260 260 259 258 259 264 271 277 277 274 269 266 260 249 243 241 244 251 261 271 278 288 298 307 313 319 325 333 347 359 2 353 338 322
312 313 314 314 315 321 327 331 335 338 337 327 299 284 276 260 240 229 229 235 241 244 241 239 237 238 241 243 238 229 227 235 232 225 222 222 222 223 228 234 239 243 246 245 244 244 247 250 252 253 253 255 256 256 258 263 271 275 274 269 266 262 256 248 243 241 241 243 249 258 266 274 284 295 304 311 318 324 330 338 348 357 360 358 350
318 316 316 315 317 323 330 338 346 351 352 343 321 302 271 243 234 235 239 243 247 245 242 241 240 238 238 239 231 218 211 214 212 207 207 213 219 223 228 232 236 239 240 238 237 239 242 246 248 248 250 253 255 259 264 270 274 273 266 261 257 252 244 241 242 241 240 243 249 256 262 270 279 291 302 310 315 322 328 334 339 345 352 357 358
333 328 324 320 321 328 336 347 359 8 12 8 353 340 315 284 272 266 258 254 252 249 246 244 242 238 233 230 225 216 209 204 200 200 206 213 219 223 227 230 232 234 234 234 236 239 243 246 247 249 252 257 261 267 272 274 272 265 257 252 247 241 237 240 242 241 240 244 249 254 259 266 276 289 300 307 313 320 326 331 335 338 342 347 353
353 351 345 338 335 337 343 355 9 20 27 26 18 8 354 337 316 293 275 263 255 249 244 242 240 231 217 210 214 214 207 199 195 198 206 212 215 218 222 226 229 232 235 239 242 245 246 248 250 254 258 262 267 271 273 270 262 254 247 241 236 234 237 241 241 241 241 244 248 252 258 263 272 285 297 304 312 320 326 329 332 335 338 340 344
2 4 3 359 353 348 350 0 13 23 29 30 29 28 27 24 17 355 302 266 254 246 236 231 230 220 207 201 205 206 199 194 193 196 201 209 216 220 224 228 232 236 241 244 245 247 248 251 254 258 261 264 267 270 268 259 247 239 234 230 230 234 238 241 241 241 241 244 247 252 256 262 270 281 292 302 310 319 324 327 330 332 335 336 339
357 4 8 9 6 0 356 2 14 22 26 27 28 31 31 31 31 29 22 344 266 243 228 220 217 212 207 205 204 199 193 189 191 199 208 219 228 233 237 240 242 245 248 250 250 252 254 255 257 260 262 264 265 265 258 243 231 226 224 226 231 236 239 241 242 241 242 244 247 251 255 262 270 280 290 299 307 314 320 325 328 330 332 334 336
349 358 5 10 12 9 3 1 9 22 29 31 30 28 27 28 31 33 34 33 31 210 206 204 205 206 207 206 202 199 196 195 199 210 222 233 239 244 248 251 252 255 258 259 259 260 260 260 262 263 263 261 258 252 240 228 221 221 224 229 234 239 241 242 243 243 243 245 247 249 255 262 270 278 287 295 302 309 316 322 326 328 330 333 335
342 350 359 6 12 14 11 6 3 9 23 33 37 34 28 26 29 34 38 41 48 66 122 168 185 195 202 202 199 196 197 202 212 221 229 237 246 256 263 265 266 269 269 268 266 264 262 260 260 257 251 243 236 229 222 218 219 223 228 234 238 242 243 244 244 244 245 246 247 249 254 261 268 276 283 290 297 304 311 317 322 326 328 331 333
Height
5748 5749 5749 5750 5751 5752 5753 5753 5753 5754 5755 5755 5756 5756 5756 5756 5756 5756 5756 5755 5754 5753 5753 5752 5751 5751 5752 5752 5754 5755 5756 5757 5758 5758 5758 5758 5759 5759 5759 5759 5759 5759 5759 5759 5759 5760 5760 5760 5760 5760 5760 5760 5760 5760 5760 5760 5760 5760 5760 5760 5760 5759 5759 5759 5760 5760 5760 5760 5759 5759 5759 5759 5758 5758 5758 5758 5758 5757 5757 5757 5756 5756 5756 5756 5755
5745 5746 5746 5748 5749 5750 5751 5751 5751 5752 5752 5753 5753 5754 5754 5754 5754 5754 5754 5753 5752 5752 5751 5751 5750 5750 5750 5751 5752 5753 5754 5755 5756 5756 5757 5757 5757 5757 5757 5757 5757 5757 5757 5757 5757 5758 5758 5758 5758 5758 5758 5758 5758 5758 5758 5758 5758 5758 5758 5757 5757 5757 5757 5757 5757 5758 5758 5758 5758 5757 5757 5757 5757 5756 5756 5756 5756 5755 5755 5755 5754 5754 5754 5754 5754
5742 5743 5744 5745 5747 5747 5748 5748 5749 5749 5750 5751 5751 5751 5752 5752 5752 5752 5752 5752 5751 5750 5750 5750 5749 5749 5749 5750 5750 5751 5752 5753 5754 5754 5755 5755 5755 5755 5755 5755 5755 5755 5755 5755 5755 5756 5756 5756 5756 5756 5756 5756 5756 5756 5756 5756 5755 5756 5756 5755 5755 5755 5755 5755 5755 5755 5755 5755 5755 5755 5755 5755 5755 5754 5754 5754 5753 5753 5753 5752 5752 5752 5751 5751 5752
5739 5739 5740 5742 5743 5744 5744 5745 5746 5747 5747 5748 5749 5749 5750 5750 5750 5750 5750 5750 5749 5749 5748 5748 5748 5748 5748 5749 5749 5750 5751 5751 5752 5752 5753 5753 5753 5753 5753 5753 5753 5753 5753 5753 5753 5753 5754 5754 5754 5754 5754 5754 5754 5754 5754 5754 5754 5754 5754 5754 5754 5753 5753 5753 5753 5753 5753 5753 5753 5753 5753 5753 5752 5752 5752 5751 5751 5750 5750 5750 5749 5749 5749 5749 5748
5736 5736 5737 5738 5740 5741 5742 5743 5743 5744 5745 5746 5746 5747 5747 5747 5748 5748 5748 5748 5747 5746 5746 5746 5746 5746 5747 5747 5748 5748 5749 5749 5750 5750 5751 5751 5751 5751 5751 5751 5751 5751 5751 5751 5751 5751 5751 5751 5751 5751 5751 5751 5751 5751 5752 5752 5752 5752 5752 5751 5751 5751 5751 5751 5750 5750 5750 5750 5750 5750 5750 5750 5750 5750 5749 5748 5748 5748 5748 5747 5746 5746 5746 5746 5745
5732 5733 5734 5735 5737 5739 5740 5741 5741 5742 5743 5743 5744 5745 5745 5745 5745 5746 5746 5745 5744 5744 5744 5744 5744 5744 5745 5745 5746 5746 5747 5747 5747 5748 5748 5748 5749 5749 5749 5749 5749 5749 5749 5749 5749 5749 5749 5749 5749 5749 5749 5749 5749 5749 5749 5749 5749 5749 5749 5749 5749 5749 5749 5748 5748 5748 5747 5747 5747 5747 5748 5747 5747 5746 5746 5746 5745 5744 5744 5744 5743 5742 5742 5743 5742
5730 5731 5732 5733 5734 5736 5737 5738 5739 5739 5740 5741 5741 5742 5742 5743 5743 5743 5743 5742 5742 5741 5741 5741 5742 5742 5743 5743 5744 5744 5744 5744 5745 5745 5746 5746 5746 5746 5746 5746 5746 5747 5747 5747 5747 5747 5747 5746 5746 5746 5746 5746 5746 5746 5746 5747 5746 5747 5746 5746 5746 5746 5746 5745 5745 5745 5744 5744 5743 5743 5744 5744 5744 5743 5743 5743 5742 5741 5740 5740 5739 5737 5737 5738 5738
5728 5729 5730 5731 5732 5733 5734 5735 5736 5737 5737 5738 5739 5739 5739 5739 5739 5740 5739 5739 5739 5739 5739 5739 5739 5740 5741 5741 5741 5741 5741 5741 5742 5742 5743 5743 5743 5744 5744 5743 5743 5744 5744 5744 5744 5744 5743 5743 5743 5743 5743 5743 5743 5743 5743 5743 5743 5743 5743 5743 5743 5743 5743 5743 5742 5741 5741 5741 5740 5739 5739 5740 5740 5740 5739 5739 5738 5737 5736 5735 5734 5733 5732 5732 5732
5725 5726 5728 5729 5730 5731 5731 5733 5734 5734 5734 5735 5735 5736 5736 5736 5736 5736 5736 5736 5736 5736 5736 5737 5737 5737 5737 5738 5738 5738 5738 5738 5739 5739 5739 5740 5740 5740 5741 5741 5741 5741 5741 5741 5741 5740 5740 5739 5739 5739 5739 5739 5739 5739 5739 5739 5740 5740 5740 5740 5740 5740 5739 5739 5739 5738 5738 5738 5736 5735 5735 5735 5735 5735 5734 5734 5734 5733 5732 5730 5729 5728 5727 5727 5727
5723 5724 5724 5725 5727 5728 5728 5729 5730 5730 5730 5731 5731 5732 5732 5732 5732 5733 5733 5733 5733 5733 5733 5733 5734 5734 5734 5734 5734 5734 5735 5735 5735 5735 5736 5736 5736 5737 5738 5738 5738 5738 5738 5738 5737 5737 5736 5735 5735 5734 5734 5735 5735 5735 5735 5736 5736 5736 5736 5736 5736 5736 5736 5736 5735 5735 5734 5734 5733 5732 5731 5730 5731 5730 5729 5729 5728 5728 5727 5726 5724 5723 5722 5721 5721
5720 5720 5721 5721 5722 5723 5724 5724 5725 5726 5726 5726 5727 5727 5728 5728 5728 5729 5729 5729 5729 5729 5729 5729 5730 5730 5730 5730 5730 5730 5731 5731 5731 5731 5732 5732 5732 5733 5734 5734 5734 5734 5734 5734 5733 5733 5732 5731 5730 5730 5730 5731 5731 5731 5732 5732 5732 5732 5732 5732 5732 5732 5732 5732 5731 5731 5730 5730 5729 5728 5727 5726 5725 5725 5724 5723 5723 5722 5722 5721 5719 5718 5717 5716 5716
5716 5717 5717 5717 5718 5718 5719 5719 5720 5720 5721 5722 5722 5723 5723 5724 5724 5724 5724 5724 5725 5725 5724 5724 5725 5725 5725 5725 5725 5726 5726 5726 5726 5727 5727 5727 5728 5728 5729 5729 5729 5730 5730 5730 5729 5729 5728 5727 5726 5726 5726 5726 5727 5727 5728 5728 5728 5728 5728 5728 5728 5728 5728 5727 5727 5726 5726 5725 5724 5723 5722 5721 5720 5720 5719 5718 5717 5716 5716 5715 5714 5713 5712 5710 5710
5712 5712 5712 5713 5713 5713 5714 5714 5715 5715 5716 5717 5717 5718 5718 5719 5719 5719 5719 5719 5720 5720 5720 5720 5720 5720 5720 5720 5720 5721 5721 5721 5722 5722 5723 5723 5723 5723 5723 5724 5724 5724 5725 5725 5725 5724 5724 5723 5722 5722 5722 5721 5722 5723 5723 5724 5724 5724 5724 5724 5724 5724 5723 5722 5722 5721 5720 5720 5719 5718 5717 5716 5714 5714 5714 5713 5712 5711 5710 5709 5708 5707 5706 5705 5704
5707 5707 5708 5708 5708 5708 5709 5709 5709 5710 5711 5711 5711 5712 5712 5712 5713 5713 5713 5714 5714 5714 5715 5714 5714 5715 5715 5715 5715 5716 5716 5717 5717 5717 5718 5718 5718 5718 5718 5718 5719 5719 5719 5720 5719 5719 5719 5718 5717 5717 5717 5717 5717 5718 5719 5719 5719 5719 5719 5719 5719 5719 5718 5718 5717 5716 5715 5714 5714 5713 5713 5712 5710 5709 5709 5708 5707 5706 5704 5704 5703 5701 5700 5699 5698
5702 5702 5703 5703 5703 5703 5703 5703 5703 5704 5704 5705 5706 5705 5705 5705 5706 5707 5707 5707 5707 5708 5709 5709 5708 5709 5709 5710 5711 5710 5711 5712 5712 5712 5713 5713 5713 5713 5713 5714 5714 5714 5714 5714 5714 5713 5714 5713 5712 5713 5712 5712 5713 5714 5714 5714 5714 5714 5714 5714 5714 5714 5714 5713 5712 5712 5711 5710 5709 5708 5707 5707 5705 5704 5703 5702 5701 5700 5699 5698 5696 5695 5694 5692 5691
5697 5697 5697 5697 5697 5697 5697 5697 5697 5698 5698 5699 5699 5699 5699 5700 5700 5701 5701 5702 5702 5703 5703 5704 5704 5704 5704 5705 5706 5706 5706 5707 5707 5707 5708 5708 5707 5708 5708 5708 5709 5708 5708 5709 5709 5708 5708 5708 5708 5708 5708 5708 5708 5709 5709 5709 5709 5710 5710 5710 5710 5710 5709 5709 5708 5707 5706 5705 5704 5703 5702 5701 5700 5699 5697 5696 5694 5693 5692 5691 5689 5688 5687 5686 5684
5691 5691 5691 5691 5691 5691 5691 5691 5692 5692 5692 5693 5693 5694 5694 5695 5695 5696 5697 5697 5698 5698 5699 5700 5700 5699 5700 5700 5700 5700 5701 5701 5701 5702 5702 5702 5702 5702 5702 5702 5702 5702 5703 5704 5703 5703 5703 5702 5702 5703 5703 5703 5704 5704 5704 5704 5705 5705 5705 5705 5705 5705 5704 5703 5703 5702 5701 5700 5699 5698 5697 5696 5694 5693 5692 5690 5688 5687 5685 5684 5682 5680 5679 5678 5677
5685 5685 5685 5685 5685 5685 5685 5686 5687 5687 5687 5687 5688 5689 5689 5689 5690 5690 5691 5692 5693 5693 5694 5695 5694 5694 5695 5694 5694 5695 5695 5695 5695 5696 5696 5696 5697 5696 5696 5696 5696 5696 5697 5697 5697 5698 5697 5696 5696 5697 5697 5698 5699 5699 5699 5699 5700 5700 5700 5699 5699 5700 5699 5697 5697 5696 5696 5695 5694 5693 5692 5690 5689 5688 5686 5684 5682 5681 5679 5677 5675 5673 5672 5671 5669
5679 5679 5679 5679 5679 5679 5680 5681 5681 5681 5681 5681 5682 5682 5683 5683 5684 5684 5685 5685 5686 5686 5687 5688 5688 5688 5688 5688 5688 5689 5689 5689 5689 5689 5690 5691 5691 5690 5690 5690 5690 5691 5691 5690 5690 5691 5691 5690 5690 5691 5692 5693 5693 5694 5694 5694 5694 5694 5694 5693 5693 5694 5694 5692 5691 5691 5691 5690 5689 5688 5686 5685 5683 5681 5680 5678 5676 5674 5672 5670 5668 5666 5665 5663 5661
5672 5673 5673 5673 5673 5673 5673 5674 5674 5674 5674 5674 5675 5675 5675 5676 5676 5677 5678 5678 5678 5679 5679 5680 5680 5681 5681 5681 5681 5682 5682 5682 5683 5683 5683 5684 5685 5684 5683 5683 5684 5685 5685 5684 5684 5684 5683 5683 5684 5685 5687 5688 5688 5688 5689 5688 5688 5688 5688 5687 5687 5688 5688 5687 5686 5685 5685 5684 5683 5682 5680 5678 5677 5675 5674 5672 5670 5668 5667 5664 5661 5659 5657 5655 5653
5666 5666 5666 5666 5666 5666 5666 5666 5667 5667 5667 5667 5667 5668 5668 5668 5668 5669 5670 5670 5670 5671 5672 5672 5672 5673 5673 5673 5673 5674 5674 5674 5675 5675 5676 5677 5678 5677 5676 5677 5677 5678 5679 5680 5679 5678 5677 5677 5678 5680 5681 5682 5682 5683 5683 5682 5682 5682 5682 5682 5682 5682 5682 5682 5681 5680 5679 5678 5677 5675 5673 5671 5670 5669 5667 5665 5663 5662 5661 5658 5656 5653 5651 5649 5646
5659 5659 5659 5659 5658 5658 5658 5658 5658 5659 5659 5659 5659 5659 5659 5659 5659 5660 5660 5661 5661 5662 5663 5663 5663 5664 5664 5664 5665 5665 5666 5666 5666 5667 5668 5670 5670 5671 5672 5671 5670 5671 5673 5673 5672 5671 5671 5672 5673 5674 5675 5676 5676 5676 5677 5676 5676 5676 5676 5676 5676 5676 5676 5676 5675 5674 5673 5671 5670 5668 5667 5665 5663 5662 5660 5658 5656 5654 5652 5650 5648 5646 5644 5641 5639
5651 5651 5651 5650 5650 5650 5649 5649 5649 5649 5650 5650 5650 5650 5650 5650 5650 5650 5651 5651 5652 5653 5655 5655 5655 5655 5655 5655 5656 5657 5658 5659 5659 5659 5660 5662 5664 5667 5667 5665 5664 5665 5665 5665 5665 5666 5666 5666 5667 5668 5669 5669 5670 5670 5670 5671 5671 5671 5671 5671 5671 5670 5670 5669 5669 5668 5666 5665 5663 5662 5661 5659 5657 5654 5652 5650 5648 5646 5643 5641 5639 5637 5635 5633 5630
5643 5643 5642 5642 5641 5641 5641 5640 5640 5640 5640 5640 5640 5641 5641 5641 5641 5641 5641 5642 5642 5644 5645 5646 5647 5647 5647 5647 5648 5648 5649 5650 5651 5651 5653 5655 5657 5661 5661 5659 5658 5658 5657 5658 5660 5661 5660 5660 5662 5662 5662 5663 5664 5664 5664 5665 5665 5665 5665 5665 5665 5664 5664 5663 5662 5661 5660 5659 5657 5656 5654 5652 5649 5647 5644 5642 5640 5637 5635 5633 5631 5629 5626 5624 5622
5634 5634 5633 5633 5632 5632 5632 5632 5631 5631 5631 5630 5630 5631 5631 5631 5632 5632 5632 5632 5633 5634 5635 5636 5637 5640 5640 5639 5640 5641 5641 5642 5643 5644 5645 5647 5650 5653 5653 5652 5651 5651 5651 5653 5655 5655 5654 5655 5656 5656 5656 5657 5657 5658 5658 5659 5659 5659 5659 5659 5659 5659 5658 5657 5656 5655 5654 5653 5651 5649 5647 5644 5641 5639 5637 5634 5632 5629 5626 5625 5623 5621 5619 5617 5615
5625 5624 5624 5624 5623 5623 5623 5623 5622 5621 5621 5621 5620 5621 5621 5621 5622 5623 5623 5624 5624 5625 5626 5627 5628 5630 5630 5631 5633 5633 5633 5634 5636 5636 5638 5640 5641 5643 5644 5644 5644 5644 5645 5647 5648 5647 5648 5649 5649 5650 5650 5651 5651 5652 5653 5653 5653 5654 5654 5654 5653 5653 5653 5652 5651 5649 5648 5646 5644 5642 5639 5636 5634 5631 5629 5626 5624 5621 5619 5617 5615 5614 5612 5610 5608
5615 5615 5614 5614 5614 5613 5613 5613 5612 5612 5612 5611 5611 5611 5611 5611 5612 5613 5613 5614 5616 5616 5617 5618 5619 5619 5620 5623 5625 5625 5625 5627 5628 5629 5630 5632 5633 5634 5635 5636 5637 5638 5639 5640 5640 5641 5642 5642 5643 5644 5644 5644 5645 5646 5647 5647 5648 5648 5648 5648 5648 5647 5647 5646 5645 5643 5642 5640 5637 5634 5632 5629 5626 5623 5621 5618 5616 5614 5612 5611 5609 5607 5605 5603 5601
5606 5605 5604 5604 5604 5603 5603 5603 5602 5603 5602 5601 5601 5601 5601 5600 5601 5602 5602 5603 5605 5607 5608 5608 5608 5609 5612 5616 5617 5616 5617 5619 5620 5620 5621 5623 5624 5626 5627 5627 5629 5631 5632 5632 5633 5634 5635 5636 5637 5638 5638 5638 5639 5640 5641 5642 5642 5642 5642 5642 5642 5642 5641 5640 5639 5638 5636 5633 5630 5627 5624 5621 5618 5616 5614 5612 5609 5607 5606 5604 5603 5601 5600 5598 5596
5596 5596 5595 5595 5594 5593 5593 5592 5592 5592 5592 5591 5590 5590 5590 5590 5591 5591 5590 5590 5593 5596 5597 5598 5599 5601 5604 5607 5609 5608 5609 5611 5612 5613 5613 5614 5615 5617 5618 5618 5620 5623 5624 5625 5626 5627 5628 5629 5631 5631 5632 5633 5633 5634 5635 5636 5636 5636 5636 5636 5636 5636 5636 5634 5633 5632 5629 5626 5623 5620 5617 5614 5612 5609 5607 5606 5604 5602 5600 5599 5597 5596 5594 5592 5590
5587 5587 5586 5585 5584 5583 5582 5582 5581 5581 5581 5581 5579 5579 5579 5579 5579 5579 5578 5579 5581 5584 5586 5587 5589 5592 5594 5596 5598 5600 5601 5603 5605 5606 5607 5607 5607 5607 5608 5610 5613 5615 5617 5618 5619 5620 5621 5623 5624 5625 5626 5626 5627 5628 5630 5630 5630 5631 5631 5630 5630 5630 5630 5629 5627 5625 5622 5619 5616 5614 5611 5609 5606 5604 5602 5601 5599 5597 5595 5594 5592 5591 5589 5587 5585
5579 5578 5576 5576 5575 5573 5572 5571 5570 5569 5569 5569 5569 5568 5567 5568 5567 5567 5566 5567 5569 5571 5574 5576 5579 5582 5585 5586 5588 5592 5594 5596 5597 5598 5601 5601 5600 5600 5602 5605 5607 5609 5610 5612 5613 5614 5615 5616 5618 5619 5619 5620 5621 5623 5624 5624 5625 5625 5625 5625 5625 5625 5624 5623 5621 5618 5616 5613 5610 5608 5606 5604 5602 5600 5598 5597 5595 5593 5591 5589 5588 5586 5584 5582 5580
5570 5569 5567 5566 5565 5564 5563 5562 5561 5559 5559 5558 5558 5558 5557 5557 5556 5555 5554 5555 5556 5558 5561 5563 5566 5570 5575 5577 5580 5585 5590 5589 5588 5589 5591 5592 5593 5595 5597 5599 5600 5602 5604 5606 5607 5608 5609 5611 5612 5613 5614 5615 5616 5617 5618 5618 5619 5619 5620 5620 5620 5620 5619 5617 5614 5612 5609 5607 5605 5603 5601 5600 5598 5596 5595 5593 5591 5589 5587 5586 5584 5582 5580 5577 5574
5562 5561 5559 5558 5557 5556 5555 5554 5553 5551 5550 5549 5549 5549 5548 5547 5546 5545 5544 5544 5545 5546 5548 5550 5552 5557 5562 5566 5570 5576 5580 5579 5578 5579 5581 5584 5588 5591 5591 5592 5594 5596 5598 5600 5601 5602 5604 5606 5607 5608 5609 5609 5610 5611 5612 5613 5613 5614 5614 5614 5615 5614 5613 5611 5608 5606 5604 5602 5601 5599 5597 5596 5594 5593 5591 5589 5587 5586 5584 5582 5579 5577 5574 5571 5569
5555 5554 5553 5552 5551 5550 5549 5547 5546 5545 5543 5542 5542 5541 5541 5539 5538 5537 5535 5535 5535 5536 5537 5538 5541 5544 5549 5554 5558 5563 5567 5569 5570 5572 5574 5578 5582 5584 5585 5586 5589 5592 5593 5594 5596 5597 5598 5600 5601 5602 5603 5604 5605 5606 5607 5608 5608 5609 5609 5609 5609 5608 5607 5605 5603 5602 5600 5598 5597 5595 5594 5593 5591 5590 5588 5586 5584 5582 5579 5577 5574 5571 5569 5567 5565
5549 5549 5548 5546 5546 5545 5543 5542 5541 5539 5538 5536 5535 5534 5533 5532 5531 5530 5528 5527 5528 5528 5527 5529 5531 5534 5538 5542 5546 5551 5557 5561 5563 5565 5568 5571 5575 5578 5580 5582 5583 5584 5586 5588 5589 5591 5592 5594 5595 5597 5598 5599 5600 5601 5602 5603 5603 5604 5605 5604 5604 5603 5602 5600 5599 5598 5596 5594 5593 5592 5591 5590 5589 5587 5586 5583 5581 5578 5575 5572 5569 5566 5565 5563 5562
5545 5544 5543 5542 5541 5540 5538 5537 5535 5534 5532 5530 5528 5527 5526 5524 5523 5522 5521 5520 5521 5521 5521 5522 5524 5526 5529 5532 5536 5541 5548 5554 5556 5559 5562 5565 5567 5571 5575 5577 5577 5577 5579 5581 5583 5585 5587 5588 5589 5591 5593 5594 5595 5596 5597 5598 5599 5600 5600 5599 5598 5598 5597 5596 5595 5593 5592 5591 5590 5589 5588 5587 5586 5585 5583 5580 5577 5574 5571 5568 5565 5563 5562 5561 5560
5541 5541 5540 5538 5537 5535 5534 5532 5530 5528 5525 5523 5520 5518 5516 5515 5514 5514 5513 5513 5514 5515 5516 5517 5518 5519 5521 5524 5528 5532 5538 5543 5547 5551 5555 5558 5561 5565 5568 5570 5570 5571 5572 5575 5578 5580 5581 5583 5584 5586 5588 5589 5590 5591 5592 5593 5594 5595 5595 5594 5593 5593 5592 5591 5591 5590 5589 5588 5587 5586 5586 5585 5584 5583 5581 5578 5574 5570 5567 5564 5561 5560 5559 5558 5557
5538 5537 5536 5534 5533 5531 5529 5527 5525 5522 5518 5515 5511 5508 5506 5505 5505 5505 5505 5506 5508 5510 5511 5512 5512 5513 5515 5518 5520 5524 5529 5533 5538 5543 5547 5550 5555 5559 5561 5562 5563 5564 5567 5570 5572 5574 5576 5578 5580 5581 5583 5584 5585 5587 5588 5589 5590 5590 5589 5589 5589 5589 5588 5587 5587 5586 5586 5585 5585 5584 5584 5583 5582 5580 5579 5576 5572 5568 5563 5560 5559 5558 5557 5556 5555
5535 5534 5532 5531 5529 5527 5525 5523 5519 5516 5511 5507 5503 5499 5497 5496 5496 5497 5498 5500 5503 5506 5507 5507 5507 5508 5510 5512 5514 5518 5522 5526 5531 5535 5539 5543 5548 5552 5554 5555 5556 5558 5561 5564 5566 5568 5570 5573 5574 5576 5578 5579 5581 5582 5583 5584 5584 5584 5584 5584 5584 5584 5584 5584 5583 5583 5583 5582 5582 5582 5581 5581 5580 5578 5577 5574 5571 5566 5561 5558 5557 5556 5555 5554 5553
5532 5530 5529 5527 5525 5523 5521 5518 5514 5510 5505 5500 5495 5492 5491 5490 5490 5491 5493 5495 5499 5502 5503 5503 5503 5504 5505 5507 5508 5511 5515 5518 5523 5528 5533 5537 5542 5545 5547 5547 5550 5553 5555 5557 5560 5562 5565 5567 5569 5571 5572 5574 5576 5577 5578 5579 5579 5579 5580 5580 5580 5580 5580 5580 5580 5580 5580 5580 5580 5579 5579 5578 5578 5576 5575 5572 5570 5565 5561 5557 5555 5554 5553 5552 5551
5529 5527 5526 5524 5522 5519 5517 5513 5509 5504 5499 5493 5489 5487 5486 5486 5487 5488 5489 5492 5495 5497 5498 5499 5500 5500 5501 5502 5504 5506 5509 5512 5517 5522 5526 5529 5534 5539 5541 5541 5544 5548 5550 5552 5554 5558 5560 5562 5564 5566 5567 5569 5571 5572 5573 5574 5575 5575 5576 5576 5576 5577 5577 5577 5577 5577 5577 5577 5577 5577 5577 5576 5576 5574 5573 5571 5568 5565 5561 5557 5554 5552 5551 5550 5549
5526 5524 5522 5520 5518 5516 5513 5509 5505 5499 5493 5487 5484 5483 5483 5483 5484 5485 5486 5489 5491 5493 5494 5495 5496 5496 5497 5499 5500 5502 5504 5507 5511 5515 5519 5523 5529 5533 5535 5536 5539 5543 5545 5547 5550 5553 5555 5557 5558 5560 5562 5564 5566 5568 5569 5569 5570 5571 5572 5572 5572 5573 5573 5573 5573 5574 5574 5574 5574 5574 5574 5574 5573 5572 5571 5569 5566 5564 5561 5557 5554 5551 5550 5548 5547
5523 5522 5520 5518 5516 5513 5510 5506 5501 5495 5488 5483 5480 5480 5480 5481 5482 5483 5485 5487 5488 5489 5491 5493 5493 5493 5494 5496 5498 5499 5501 5503 5506 5510 5514 5519 5525 5529 5532 5534 5536 5539 5541 5543 5546 5548 5550 5552 5554 5556 5558 5560 5561 5563 5564 5565 5566 5567 5568 5568 5568 5569 5569 5570 5570 5571 5571 5571 5572 5572 5572 5572 5571 5570 5568 5567 5565 5563 5560 5557 5554 5551 5549 5547 5545
5521 5520 5518 5516 5514 5511 5508 5504 5499 5492 5485 5481 5479 5479 5479 5480 5481 5482 5484 5485 5486 5487 5489 5490 5490 5491 5493 5495 5496 5498 5500 5502 5503 5507 5512 5517 5523 5527 5530 5531 5533 5535 5538 5540 5543 5544 5546 5548 5550 5552 5554 5555 5556 5558 5559 5561 5562 5563 5563 5564 5564 5565 5566 5566 5567 5568 5568 5569 5569 5569 5569 5569 5569 5568 5566 5565 5563 5561 5559 5556 5553 5551 5549 5546 5544
5519 5518 5516 5514 5512 5509 5506 5502 5497 5490 5485 5481 5480 5480 5480 5480 5481 5481 5482 5483 5484 5485 5486 5487 5488 5490 5492 5493 5495 5497 5500 5501 5503 5507 5512 5517 5521 5524 5526 5528 5530 5532 5534 5537 5538 5540 5542 5544 5547 5548 5550 5551 5552 5554 5555 5556 5557 5557 5558 5559 5560 5561 5562 5563 5564 5564 5565 5566 5566 5567 5567 5567 5566 5565 5564 5563 5561 5559 5557 5555 5553 5550 5548 5546 5544
5518 5516 5514 5512 5510 5507 5505 5501 5497 5491 5486 5484 5482 5482 5481 5481 5481 5481 5482 5482 5482 5483 5484 5485 5486 5489 5491 5492 5493 5496 5499 5501 5504 5507 5511 5514 5517 5520 5522 5525 5527 5529 5531 5533 5535 5536 5538 5541 5543 5544 5546 5547 5548 5549 5550 5551 5552 5552 5553 5555 5556 5558 5559 5560 5560 5561 5562 5563 5563 5564 5564 5564 5564 5563 5562 5560 5559 5557 5555 5554 5551 5549 5547 5545 5543
5517 5515 5513 5510 5508 5506 5503 5501 5497 5493 5489 5487 5485 5484 5483 5482 5482 5481 5481 5481 5481 5481 5482 5483 5485 5487 5489 5491 5492 5494 5497 5500 5504 5506 5509 5511 5514 5517 5519 5521 5523 5525 5527 5529 5531 5533 5535 5537 5539 5540 5541 5543 5544 5545 5546 5546 5547 5548 5549 5551 5553 5554 5555 5556 5557 5558 5559 5560 5560 5561 5561 5561 5561 5560 5559 5558 5557 5555 5554 5552 5550 5548 5546 5544 5542
5516 5514 5512 5509 5507 5505 5503 5500 5498 5494 5492 5489 5488 5486 5485 5484 5482 5481 5480 5479 5479 5480 5481 5482 5484 5486 5488 5490 5492 5494 5496 5500 5503 5505 5507 5510 5512 5515 5517 5518 5520 5522 5524 5525 5527 5529 5531 5533 5534 5536 5537 5539 5540 5541 5542 5543 5543 5544 5546 5548 5549 5551 5552 5553 5554 5555 5556 5557 5557 5558 5558 5558 5557 5557 5556 5555 5554 5553 5552 5550 5549 5547 5545 5543 5541
5515 5514 5511 5509 5507 5505 5503 5501 5498 5496 5494 5492 5490 5489 5487 5485 5484 5482 5481 5479 5479 5479 5480 5481 5482 5484 5487 5489 5491 5494 5496 5499 5502 5505 5507 5509 5511 5513 5514 5516 5517 5519 5520 5522 5524 5525 5527 5528 5530 5531 5533 5535 5537 5538 5539 5540 5540 5542 5543 5545 5547 5548 5549 5550 5551 5552 5553 5554 5554 5555 5555 5555 5554 5554 5553 5553 5552 5551 5550 5549 5547 5546 5544 5542 5540
5515 5514 5512 5510 5507 5505 5503 5501 5499 5498 5496 5494 5492 5491 5489 5487 5485 5484 5482 5481 5479 5479 5479 5481 5482 5484 5487 5489 5491 5494 5496 5499 5502 5504 5506 5508 5509 5510 5512 5513 5515 5516 5518 5519 5520 5522 5523 5524 5526 5528 5530 5532 5533 5535 5536 5537 5538 5539 5541 5542 5544 5545 5546 5547 5548 5549 5550 5551 5551 5551 5552 5552 5551 5551 5551 5550 5549 5549 5548 5547 5545 5544 5543 5541 5539
5514 5513 5512 5510 5508 5506 5504 5502 5500 5499 5497 5495 5494 5492 5491 5489 5488 5486 5485 5483 5482 5481 5480 5481 5483 5485 5487 5489 5492 5495 5498 5500 5502 5503 5505 5506 5507 5508 5509 5511 5512 5513 5514 5516 5517 5518 5519 5521 5523 5525 5526 5528 5529 5531 5533 5534 5535 5537 5538 5540 5541 5543 5544 5544 5545 5546 5547 5547 5548 5548 5548 5549 5548 5548 5548 5547 5547 5546 5545 5544 5543 5542 5541 5540 5538